Location: Pilipovskiye Korichintsy
(49.1833°N, 27.4667°E)
Time: 00:29:30
(UTC+00:00)

Lacrosse 5 - Pass Details

Date: 30 October 2020
Orbit: 714 x 725 km, 57.0° (Epoch: 30 November)

Event Time Altitude Azimuth Distance (km) Brightness Sun altitude
Rises 15:38:28 0° 287° (WNW) 3,119 6.4 -8.1°
Reaches altitude 10° 15:41:03 10° 297° (WNW) 2,198 5.2 -8.6°
Maximum altitude 15:45:38 34° 2° (N) 1,181 2.9 -9.3°
Enters shadow 15:49:49 12° 64° (ENE) 2,062 3.6 -10.0°
